STARLINK-1014

Last updated on Thu Dec 12 2019 00:02:03 GMT+0000 (Coordinated Universal Time)

1 44720U 19074H 19345.58335648 .00058731 00000-0 41987-3 0 9998 2 44720 53.0089 21.5082 0002057 19.2991 34.9374 15.73198991 4734

Satellite not in orbit